www.pogodaiklimat.ru

Погода и климат >> Архив погоды >> Россия >> Алтайский край >> Барнаул


АРХИВ ПОГОДЫ в Барнауле

Время (UTC), дата Ветер
(напр.,м/с)
 
Видим.   Явления Облачность Т
(С)
Тd
(С)
f
(%)
Тe
(С)
Тes
(С)
Комфортность P
(гПа)
Po
(гПа)
Тmin
(С)
Tmax
(С)
R
(мм)
R24
(мм)
S
(см)
00 14.08 В 2
{10}
10 км 6/6 600 м
[Cb cap]
+13.4 +8.7 73 +13 +13 по сезону 1006.5 984.8 +12.6
03 14.08 СЗ 2 10 км в посл. час гроза {ливн. осадки} 8/6 600 м
[Cb cap Ci fib]
+16.1 +11.7 75 +16 +19 по сезону 1006.9 985.4
06 14.08 СВ 2 10 км {гроза, ливн. осадки} 8/4 1000 м
[Cu med, cong Ac trans Ci fib]
+24.9 +13.2 48 +27 +32 жарко 1005.7 984.8
09 14.08 С 2 10 км 8/5 1000 м
[Cu Sc Ac trans Ci fib]
+26.3 +13.0 44 +28 +31 жарко 1006.1 985.3
12 14.08 СЗ 1 10 км 3/0
[Ac cuf]
+24.7 +15.7 57 +28 +29 душно 1006.9 986.0 +26.3 0.0
15 14.08 штиль 0 10 км ясно +18.2 +15.1 82 +18 +18 по сезону 1008.7 987.3
18 14.08 штиль 0 10 км ясно +13.7 +12.3 91 +13 +13 по сезону 1008.9 987.2
21 14.08 штиль 0 10 км 8/0
[Cs]
+11.3 +10.9 97 +11 +11 прохладно 1009.0 987.1
00 15.08 штиль 0 4000 м дымка 3/0
[Cs]
+10.8 +10.5 98 +10 +10 по сезону 1009.2 987.2 +10.7
03 15.08 штиль 0 10 км 9/0
[Ac trans Ci fib]
+18.9 +16.1 84 +20 +24 тепло 1008.7 987.4
06 15.08 СВ 2 10 км 8/0
[Ci fib]
+25.7 +13.9 48 +28 +39 жарко 1008.0 987.1
09 15.08 В 1 10 км 10/0
[Ac As]
+26.3 +12.9 43 +28 +31 жарко 1007.7 986.9
12 15.08 штиль 0 10 км 10/0
[Ac und]
+24.8 +14.3 52 +27 +28 жарко 1007.5 986.6 +27.3
15 15.08 штиль 0 10 км 10/0
[Ac und]
+20.1 +15.5 75 +22 +22 комфорт 1008.3 987.0
18 15.08 З 1 10 км 10/0
[Ac und]
+20.1 +16.1 78 +24 +24 комфорт 1007.9 986.7
21 15.08 ЮЗ 1 10 км 8/0
[Ac trans Ci fib]
+16.7 +14.6 87 +18 +18 тепло 1007.8 986.3
00 16.08 ЮЗ 3 10 км 10/10 600 м
[Sc]
+17.3 +13.6 79 +17 +17 тепло 1008.7 987.2 +16.7
03 16.08 СЗ 2 10 км в посл. час ливневой дождь 10/10 600 м
[Cb cap]
+17.3 +14.2 82 +18 +18 тепло 1008.7 987.3
06 16.08 З 1 4000 м слаб. ливневой дождь {гроза} 10/10 600 м
[Cb cap]
+16.1 +15.5 96 +17 +17 холодно 1009.7 988.1
09 16.08 СЗ 1 10 км {ливн. осадки} 8/6 600 м
[Cb cap Ac trans]
+19.3 +15.7 80 +22 +25 комфорт 1009.0 987.7
12 16.08 СЗ 2 10 км {ливн. осадки} 8/8 600 м
[Sc Ac trans]
+20.0 +15.7 76 +23 +23 комфорт 1009.8 988.5 +21.5 5
15 16.08 штиль 0 10 км 8/5 600 м
[Sc Ac trans]
+16.4 +15.6 95 +16 +16 прохладно 1010.8 989.3
18 16.08 З 1 10 км {ливн. осадки} 6/4 600 м
[Sc Ac trans]
+14.0 +13.6 97 +14 +14 по сезону 1011.1 989.3
21 16.08 штиль 0 500 м туман ясно +14.3 +14.1 99 +14 +14 по сезону 1011.0 989.3
00 17.08 штиль 0 500 м туман ясно +13.8 +13.6 99 +13 +14 по сезону 1011.8 990.0 +12.6 0.0
03 17.08 ЮВ 1 4000 м дымка {туман} 10/10 600 м
[Sc]
+16.3 +16.1 99 +17 +17 по сезону 1012.1 990.5
06 17.08 штиль 0 10 км {туман} 9/6 600 м
[Cb cap Ac As Cc]
+19.6 +16.1 80 +22 +26 комфорт 1011.8 990.4
09 17.08 ЮЗ 2 10 км 8/6 600 м
[Cb cap Ac trans Cc]
+21.8 +13.5 59 +25 +27 комфорт 1011.4 990.2
12 17.08 СЗ 2 10 км 8/4 1000 м
[Sc diur, vesp Ac cast Cc]
+21.1 +15.5 70 +24 +25 комфорт 1011.6 990.4 +22.8
15 17.08 СЗ 1 10 км 6/3 600 м
[Sc diur, vesp Ac cast Ci fib]
+17.0 +15.6 91 +18 +18 по сезону 1012.6 991.0
18 17.08 СЗ 1 4000 м дымка 10/10 600 м
[Sc]
+15.1 +14.7 97 +16 +16 тепло 1012.4 990.7
21 17.08 штиль 0 200 м туман 5/0
[Ac cast Ci fib]
+13.5 +13.3 99 +13 +13 по сезону 1012.4 990.5
00 18.08 штиль 0 200 м туман ясно +13.6 +13.4 99 +13 +13 по сезону 1012.5 990.6 +12.8
03 18.08 штиль 0 4000 м дымка {туман} 3/3 1000 м
[Cu med, cong]
+18.2 +15.8 86 +19 +24 тепло 1012.8 991.3
06 18.08 СВ 1 10 км {туман} 6/6 1000 м
[Cu med, cong]
+23.8 +13.8 53 +26 +32 жарко 1012.2 991.1
09 18.08 СЗ 1 10 км 8/8 1000 м
[Cu med, cong]
+25.9 +13.8 47 +28 +30 жарко 1011.6 990.7
12 18.08 З 2 10 км 3/3 1000 м
[Cu med, cong Ci fib]
+25.8 +14.2 49 +28 +29 жарко 1012.5 991.6 +26.5
15 18.08 штиль 0 10 км 5/5 600 м
[Sc]
+19.0 +14.6 76 +20 +20 тепло 1014.7 993.2
18 18.08 штиль 0 10 км 8/8 600 м
[Sc]
+17.0 +15.1 89 +17 +17 тепло 1015.6 994.0
21 18.08 штиль 0 10 км 8/8 600 м
[Sc]
+16.5 +15.6 94 +16 +16 тепло 1015.9 994.2
00 19.08 З 1 4000 м в посл. час туман 8/0
[Ci fib]
+15.4 +15.1 98 +16 +16 тепло 1016.8 995.1 +14.2
03 19.08 ЮЗ 1 10 км 9/0
[Ci]
+21.8 +16.0 70 +26 +31 душно 1016.7 995.4
06 19.08 З 2 4000 м мгла 6/4 600 м
[Cu med, cong Ac trans Ci fib]
+25.2 +14.5 51 +28 +34 жарко 1016.0 994.9
09 19.08 З 2 10 км 10/10 600 м
[Sc]
+24.9 +14.1 51 +27 +27 жарко 1015.5 994.5
12 19.08 штиль 0 10 км {дождь} 10/10 600 м
[Sc]
+19.2 +17.0 87 +21 +21 комфорт 1015.8 994.3 +25.8 0.6
15 19.08 штиль 0 4000 м ливневой дождь 10/10 600 м
[Cb cap]
+17.6 +17.0 96 +18 +18 по сезону 1017.0 995.4
18 19.08 Ю 1 10 км слаб. ливневой дождь 10/10 600 м
[Cb cap]
+15.5 +14.9 96 +16 +16 тепло 1016.6 994.8
21 19.08 З 1 4000 м слаб. дождь 10/10 300 м
[Frnb Ns]
+15.3 +14.8 97 +16 +16 тепло 1015.6 993.8
00 20.08 З 2 10 км {дождь} 10/10 600 м
[Sc]
+15.5 +15.1 97 +15 +15 тепло 1015.1 993.4 +15.1 11
03 20.08 З 2 4000 м дымка {туман} 9/8 600 м
[Sc Ac trans]
+15.9 +15.0 94 +16 +17 по сезону 1015.9 994.1
06 20.08 З 1 10 км {туман} 8/8 600 м
[Sc]
+20.3 +13.8 66 +24 +26 комфорт 1015.9 994.5
09 20.08 З 3 10 км {ливн. осадки} 8/8 600 м
[Cb cap]
+21.9 +11.7 52 +24 +25 комфорт 1015.5 994.2
12 20.08 З 1 10 км {ливн. осадки} 9/8 600 м
[Sc Ac trans]
+19.3 +10.5 57 +21 +22 комфорт 1016.2 994.7 +22.0 0.3
15 20.08 Ю 1 10 км 8/8 600 м
[Sc]
+15.7 +9.7 67 +16 +16 по сезону 1016.5 994.7
18 20.08 Ю 2 10 км 8/0
[Ac trans Ci fib]
+13.5 +9.9 79 +13 +13 по сезону 1016.0 994.0
21 20.08 Ю 2
{11}
10 км в посл. час ливневой дождь 10/10 600 м
[Cb cap]
+12.7 +9.9 83 +12 +12 по сезону 1015.4 993.4

 

Местоположение метеостанции Барнаул (Алтайский край, Россия): широта 53.43 долгота 83.52 высота над уровнем моря 185 м.

В архиве по умолчанию представлена погода в Барнауле за последнюю неделю. Архивные данные за месяц целиком и за предыдущие месяцы, начиная с января 2011 года, Вы можете получить, выбрав интересующий диапазон дат из раскрывающегося списка и нажав кнопку "Ввод!".


*Определитесь, кто Вы:
робот инопланетянин человек

Внимание! Время в таблицах - всемирное. Для получения местного времени необходимо прибавить поправку, которая равна 7 ч.

Смотрите также архив погоды в соседних городах и на ближайших метеорологических станциях:

Погода в Барнауле АМС (Алтайский край, Россия) (21 км)
Погода в Боровихе (Алтайский край, Россия) (23 км)
Погода в Тальменке (Алтайский край, Россия) (44 км)
Погода в Шелаболихе (Алтайский край, Россия) (61 км)
Погода в Сузуне (Новосибирская область, Россия) (88 км)
Погода в Ребрихе (Алтайский край, Россия) (88 км)
Погода в Троицком (Алтайский край, Россия) (93 км)
Погода в Посевной (Новосибирская область, Россия) (98 км)
Погода в Заринске (Алтайский край, Россия) (100 км)
Погода в Маслянино (Новосибирская область, Россия) (110 км)

Пояснения к столбцам:

Ветер - указаны скорость ветра в м/с - средняя за 10 мин, порывы в срок и между сроками (в фигурных скобках) и направление, откуда дует ветер: С - северный, СВ - северо-восточный, В - восточный, ЮВ - юго-восточный, Ю - южный, ЮЗ - юго-западный, З - западный, СЗ - северо-западный.
Видимость - горизонтальная дальность видимости в метрах или километрах. При видимости от 1 до 10 км при отсутствии осадков обычно наблюдается дымка, при ухудшении видимости до 1 км и менее - туман. В сухую погоду видимость может ухудшаться дымом, пылью или мглою.
Явления - указаны атмосферные явления, наблюдавшиеся в срок или в последний час перед сроком; фигурными скобками обозначены явления, наблюдавшиеся между сроками (за 1-3 часа до срока); квадратными скобками обозначены град или гололедные отложения с указанием их диаметра в мм.
Облачность - указаны через наклонную черту общая и нижняя облачность в баллах и высота нижней границы облаков в метрах; квадратными скобками обозначены формы облаков: Ci - перистые, Cs - перисто-слоистые, Cc - перисто-кучевые, Ac - высококучевые, As - высокослоистые, Sc - слоисто-кучевые, Ns - слоисто-дождевые, Cu - кучевые, Cb - кучево-дождевые. Подробнее классификацию облаков см. в Атласе облаков (PDF).
T - Температура воздуха - температура, измеренная на высоте 2 м над землей.
Td - Температура точки росы - температура, при понижении до которой содержащийся в воздухе водяной пар достигнет насыщения.
f - Относительная влажность воздуха - влажноcть воздуха, измеренная на высоте 2 м над землей.
Te - Эффективная температура - температура, которую ощущает одетый по сезону человек в тени. Характеристика душности погоды. При расчете учитывается влияние влажности воздуха и скорости ветра на теплоощущения человека.
Tes - Эффективная температура на солнце - температура, которую ощущает человек, с поправкой на солнечный нагрев. Характеристика знойности погоды. Зависит от высоты солнца над горизонтом, облачности и скорости ветра. Ночью, в пасмурную погоду, а также при ветре 12 м/с и более поправка равна нулю.
P - Атмосферное давление - приведенное к уровню моря атмосферное давление.
Po - Атмосферное давление - измеренное на уровне метеостанции атмосферное давление.
Tmin - Минимальная температура - минимум температуры воздуха на высоте 2 м над землей.
Tmax - Максимальная температура - максимум температуры воздуха на высоте 2 м над землей.
R - Количество осадков - Количество выпавших осадков за период времени, мм. При наведении курсора мыши на число - период времени, за который выпало указанное количество осадков.
R24 - Количество осадков - Количество выпавших осадков за 24 часа, мм.
S - Снежный покров - Высота снежного покрова, см. При наведении курсора мыши на число - состояние снежного покрова и степень покрытия местности в баллах.